Location: Izdebno
(52.6670°N, 16.2170°E)
Time: 13:07:28
(UTC+02:00)

Vanguard 2 - Pass Details

Date: 05 February 2023
Orbit: 553 x 2927 km, 32.9° (Epoch: 26 March)

Event Time Altitude Azimuth Distance (km) Brightness Sun altitude
Rises 20:21:22 0° 208° (SSW) 5,064 11.8 -32.3°
Reaches altitude 10° 20:25:18 10° 195° (SSW) 4,436 11.3 -32.9°
Enters shadow 20:30:35 21° 170° (S) 4,022 10.9 -33.7°
Maximum altitude 20:34:37 24° 148° (SSE) 4,097 - -34.2°
Drops below altitude 10° 20:46:16 10° 104° (ESE) 5,661 - -35.9°
Sets 20:52:11 0° 93° (E) 6,779 - -36.7°
